Flight Track Log - Related Links

Times and Time Zones

All times are in EDT time to prevent confusion due to time zone crossing. See the UAL3779 flight status page for this flight to view local times or setup timezone preferences in your user account.

Time Position Orientation Groundspeed Altitude Reporting Facility
EDT Latitude Longitude Course Direction KTS MPH feet Rate Location/Type
Thu 07:19:54 AM 35.4039 -97.5919 63° Northeast 158 182 2,000  Level Fort Worth Center
Thu 07:21:01 AM 35.4519 -97.5692 21° North 191 220 4,500 1,984 Climbing Fort Worth Center
Thu 07:22:01 AM 35.4856 -97.4953 61° Northeast 284 327 6,200 2,241 Climbing Fort Worth Center
Thu 07:23:39 AM 35.5536 -97.3403 62° Northeast 300 345 10,400 2,278 Climbing Kansas City Center
Thu 07:24:39 AM 35.5958 -97.2386 63° Northeast 323 372 12,200 1,935 Climbing Kansas City Center
Thu 07:25:00 AM 35.7343 -96.8144 63° Northeast  Level FlightAware Approximate
Thu 07:25:43 AM 35.6442 -97.1256 62° Northeast 364 419 14,400  Level Kansas City Center
Thu 07:26:43 AM 35.6944 -97.0078 62° Northeast 381 438 16,300 1,934 Climbing Kansas City Center
Thu 07:27:44 AM 35.7450 -96.8858 63° Northeast 396 456 18,300 1,835 Climbing Kansas City Center
Thu 07:28:44 AM 35.7983 -96.7581 63° Northeast 413 475 20,000 1,650 Climbing Kansas City Center
Thu 07:29:44 AM 35.8539 -96.6250 63° Northeast 431 496 21,600 1,317 Climbing Kansas City Center
Thu 07:30:47 AM 35.9119 -96.4858 63° Northeast 450 518 22,700 1,377 Climbing Kansas City Center
Thu 07:31:46 AM 35.9767 -96.3306 63° Northeast 470 541 24,400 1,563 Climbing Kansas City Center
Thu 07:32:46 AM 36.0367 -96.1847 63° Northeast 474 545 25,800 1,463 Climbing Kansas City Center
Thu 07:33:49 AM 36.0975 -96.0367 63° Northeast 480 552 27,400 1,306 Climbing Kansas City Center
Thu 07:34:50 AM 36.1575 -95.8869 64° Northeast 484 557 28,500 984 Climbing Kansas City Center
Thu 07:35:51 AM 36.2147 -95.7483 63° Northeast 491 565 29,400 885 Climbing Kansas City Center
Thu 07:36:52 AM 36.2892 -95.5981 58° Northeast 507 583 30,300 836 Climbing Kansas City Center
Thu 07:37:53 AM 36.3642 -95.4431 59° Northeast 518 596 31,100 836 Climbing Kansas City Center
Thu 07:38:54 AM 36.4539 -95.2539 59° Northeast 527 606 32,000 958 Climbing Kansas City Center
Thu 07:39:52 AM 36.5311 -95.0933 59° Northeast 534 615 33,000 1,050 Climbing Kansas City Center
Thu 07:40:54 AM 36.6053 -94.9344 60° Northeast 533 613 34,100 960 Climbing Kansas City Center
Thu 07:41:57 AM 36.6808 -94.7761 59° Northeast 532 612 35,000 446 Climbing Kansas City Center
Thu 07:42:55 AM 36.7556 -94.6169 60° Northeast 530 610 35,000  Level Kansas City Center
Thu 07:43:57 AM 36.8344 -94.4561 58° Northeast 538 619 35,000  Level Kansas City Center
Thu 07:44:58 AM 36.9489 -94.3264 42° Northeast 550 633 35,000  Level Kansas City Center
Thu 07:45:59 AM 37.0722 -94.2106 37° Northeast 552 635 35,000  Level Kansas City Center
Thu 07:47:00 AM 37.1894 -94.0981 37° Northeast 557 641 35,000  Level Kansas City Center
Thu 07:48:01 AM 37.3133 -93.9772 38° Northeast 560 644 35,000  Level Kansas City Center
Thu 07:49:02 AM 37.4369 -93.8544 38° Northeast 562 647 35,000  Level Kansas City Center
Thu 07:50:03 AM 37.5597 -93.7317 38° Northeast 561 646 35,000  Level Kansas City Center
Thu 07:51:04 AM 37.6803 -93.6094 39° Northeast 556 640 35,000  Level Kansas City Center
Thu 07:52:05 AM 37.8272 -93.4611 39° Northeast 557 641 35,000 295 Level Kansas City Center
Thu 07:53:06 AM 37.9508 -93.3358 39° Northeast 562 647 35,600 893 Climbing Kansas City Center
Thu 07:54:06 AM 38.0725 -93.2125 39° Northeast 559 643 36,800 694 Climbing Kansas City Center
Thu 07:55:07 AM 38.1917 -93.0906 39° Northeast 549 632 37,000 98 Climbing Kansas City Center
Thu 07:56:08 AM 38.3167 -92.9639 38° Northeast 558 642 37,000  Level Kansas City Center
Thu 07:57:09 AM 38.4419 -92.8336 39° Northeast 569 655 37,000  Level Kansas City Center
Thu 07:58:12 AM 38.5675 -92.7019 39° Northeast 574 661 37,000  Level Kansas City Center
Thu 07:59:13 AM 38.6953 -92.5678 39° Northeast 579 666 37,000  Level Kansas City Center
Thu 08:00:14 AM 38.8250 -92.4342 39° Northeast 589 678 37,000  Level Kansas City Center
Thu 08:01:15 AM 38.9511 -92.3019 39° Northeast 586 674 37,000  Level Kansas City Center
Thu 08:02:16 AM 39.0769 -92.1711 39° Northeast 581 669 37,000  Level Kansas City Center
Thu 08:03:17 AM 39.1811 -92.0122 50° Northeast 581 669 37,000  Level Kansas City Center
Thu 08:04:16 AM 39.2672 -91.8647 53° Northeast 573 659 37,000  Level Kansas City Center
Thu 08:05:17 AM 39.3606 -91.7006 54° Northeast 574 661 37,000  Level Kansas City Center
Thu 08:06:20 AM 39.4647 -91.5242 53° Northeast 572 658 37,000  Level Kansas City Center
Thu 08:07:22 AM 39.6006 -91.3736 40° Northeast 584 672 37,000  Level Kansas City Center
Thu 08:08:23 AM 39.7133 -91.2486 40° Northeast 586 674 37,000  Level Kansas City Center
Thu 08:09:24 AM 39.8458 -91.1000 41° Northeast 587 676 37,000  Level Kansas City Center
Thu 08:10:25 AM 39.9658 -90.9686 40° Northeast 590 679 37,000  Level Kansas City Center
Thu 08:11:25 AM 40.0894 -90.8283 41° Northeast 589 678 37,000 -1,220 Level Kansas City Center
Thu 08:12:23 AM 40.2131 -90.6892 41° Northeast 587 676 34,600 -2,017 Descending Chicago Center
Thu 08:13:24 AM 40.3350 -90.5511 41° Northeast 581 669 33,000 -829 Descending Chicago Center
Thu 08:14:26 AM 40.4536 -90.4156 41° Northeast 570 656 32,900 -780 Descending Chicago Center
Thu 08:15:27 AM 40.5825 -90.2664 41° Northeast 512 589 31,400 -1,415 Descending Chicago Center
Thu 08:16:29 AM 40.6811 -90.1525 41° Northeast 506 582 30,000 -1,403 Descending Chicago Center
Thu 08:17:31 AM 40.7858 -90.0311 41° Northeast 503 579 28,500 -1,463 Descending Chicago Center
Thu 08:18:32 AM 40.8936 -89.9014 42° Northeast 522 601 27,000 -1,561 Descending Chicago Center
Thu 08:19:34 AM 41.0153 -89.7583 42° Northeast 513 590 25,300 -1,561 Descending Chicago Center
Thu 08:20:35 AM 41.1169 -89.6375 42° Northeast 495 570 23,800 -1,024 Descending Chicago Center
Thu 08:21:37 AM 41.1958 -89.4983 53° Northeast 477 549 23,200 -1,561 Descending Chicago Center
Thu 08:22:38 AM 41.2572 -89.3481 61° Northeast 465 535 20,600 -2,341 Descending Chicago Center
Thu 08:23:40 AM 41.3153 -89.2025 62° Northeast 449 517 18,400 -2,468 Descending Chicago Center
Thu 08:24:42 AM 41.3689 -89.0706 62° Northeast 405 466 15,500 -2,390 Descending Chicago Center
Thu 08:25:43 AM 41.4153 -88.9544 62° Northeast 364 419 13,500 -1,951 Descending Chicago Center
Thu 08:26:45 AM 41.4572 -88.8456 63° Northeast 338 389 11,500 -1,220 Descending Chicago Center
Thu 08:27:46 AM 41.5072 -88.7225 61° Northeast 321 369 11,000 -244 Descending Chicago Center
Thu 08:28:48 AM 41.5467 -88.6206 63° Northeast 311 358 11,000 -194 Level Chicago Center
Thu 08:29:50 AM 41.5875 -88.5183 62° Northeast 311 358 10,600 -829 Descending Chicago Center
Thu 08:30:51 AM 41.6353 -88.4217 57° Northeast 312 359 9,300 -1,220 Descending Chicago Center
Thu 08:31:53 AM 41.6919 -88.3361 48° Northeast 313 360 8,100 -1,122 Descending Chicago Center
Thu 08:32:54 AM 41.7786 -88.3311 North 316 364 7,000 -537 Descending Chicago Center
Thu 08:33:56 AM 41.8533 -88.3383 356° North 274 315 7,000 -634 Level Chicago Center
Thu 08:34:57 AM 41.9078 -88.3592 344° North 216 249 5,700 -976 Descending Chicago Center
Thu 08:35:59 AM 41.9700 -88.3372 15° North 224 258 5,000 -341 Descending Chicago Center
Thu 08:37:00 AM 41.9703 -88.2711 90° East 188 216 5,000 -49 Level Chicago Center
Thu 08:38:02 AM 41.9656 -88.2047 95° East 179 206 4,900 -634 Descending Chicago Center
Thu 08:39:03 AM 41.9681 -88.1350 87° East 183 211 3,700 -1,118 Descending Chicago Center
Thu 08:39:44 AM 41.9667 -88.0833 92° East 169 194 3,000 -841 Descending Chicago TRACON
Thu 08:40:50 AM 41.9667 -88.0333 90° East 130 150 2,200 -700 Descending Chicago TRACON
Thu 08:41:44 AM 41.9667 -87.9833 90° East 110 127 1,600 -632 Descending Chicago TRACON
Thu 08:42:44 AM 41.9667 -87.9500 90° East 118 136 1,000 -600 Descending Chicago TRACON

Login

Don't have an account? Register now (free) for customized features, flight alerts, and more!